Regional Weather Roundup
Issued by NWS

Home | Current Version | Previous Version | Text Only | Print | Product List | Glossary Off
Versions: 1 2 3 4 5 6 7 8 9 10 11 12 13 14 15 16 17 18 19 20 21 22 23 24 25 26 27 28 29 30 31 32 33 34 35 36 37 38 39 40 41 42 43 44 45 46 47 48 49 50

000
ASUS43 KMKX 220900
RWRWI

WISCONSIN REGIONAL WEATHER ROUNDUP
NATIONAL WEATHER SERVICE MILWAUKEE/SULLIVAN WI
400 AM CDT SUN APR 22 2018

NOTE: "FAIR" INDICATES FEW OR NO CLOUDS BELOW 12,000 FEET WITH NO
SIGNIFICANT WEATHER AND/OR OBSTRUCTIONS TO VISIBILITY.

WIZ001-002-006>008-014>016-023>028-221000-
NORTHWEST WISCONSIN

CITY           SKY/WX    TMP DP  RH WIND       PRES   REMARKS
SUPERIOR ARPT  FAIR      25  22  89 SW3       30.34S
ASHLAND        FAIR      24  21  88 SW5       30.34S WCI  18
HAYWARD        FAIR      26  20  77 CALM      30.34S
SIREN          FAIR      26  20  76 CALM      30.34S
CUMBERLAND     FAIR      28  19  69 CALM      30.34S
RICE LAKE      FAIR      28  27  94 CALM      30.36S
CHETEK         FAIR      28  24  88 CALM      30.35S
LADYSMITH      FAIR      29  25  83 CALM      30.36S
EAU CLAIRE     NOT AVBL
MENOMONIE      FAIR      34  29  82 CALM      30.33F
NEW RICHMOND   FAIR      31  28  88 CALM      30.34S
OSCEOLA        FAIR      31  26  81 CALM      30.36F
$$

WIZ003>005-009-010-017-018-221000-
NORTH CENTRAL WISCONSIN

CITY           SKY/WX    TMP DP  RH WIND       PRES   REMARKS
MANITOWISH WTR FAIR      24  21  88 CALM      30.34S
ARBOR VITAE    FAIR      28  20  72 CALM      30.34S
WOODRUFF       FAIR      28  20  72 CALM      30.34S
RHINELANDER    FAIR      27  22  81 W3        30.34S
EAGLE RIVER    FAIR      25  18  76 CALM      30.33S
LAND O LAKES   FAIR      23  20  89 CALM      30.36R
PHILLIPS       FAIR      25  22  87 CALM      30.34S
TOMAHAWK       FAIR      24  21  88 CALM      30.36S
MEDFORD        FAIR      28  25  90 CALM      30.34S
MERRILL          N/A     26  24  92 CALM      30.36S
$$

WIZ029-030-035-036-043>047-221000-
CENTRAL WISCONSIN

CITY           SKY/WX    TMP DP  RH WIND       PRES   REMARKS
WAUSAU         FAIR      30  26  85 CALM      30.34R
MOSINEE        FAIR      34  27  75 CALM      30.36S
MARSHFIELD     FAIR      33  27  78 N5        30.33S WCI  29
STEVENS POINT  FAIR      27  25  94 CALM      30.37R
WAUPACA        FAIR      30  27  88 CALM      30.37S
WAUTOMA        FAIR      27  24  89 CALM      30.36S
WISC RAPIDS    FAIR      29  23  78 CALM      30.36S
CAMP DOUGLAS   FAIR      27  27  99 W3        30.33F
$$

WIZ011>013-019>022-031-037>040-048>050-221000-
NORTHEAST WISCONSIN

CITY           SKY/WX    TMP DP  RH WIND       PRES   REMARKS
ANTIGO         FAIR      29  26  89 CALM      30.36S
SHAWANO        FAIR      31  27  86 CALM      30.37R
OCONTO         FAIR      28  22  79 CALM      30.37S
STURGEON BAY   FAIR      34  21  59 S3        30.38S
GREEN BAY      FAIR      32  26  78 CALM      30.37S
MANITOWOC      FAIR      30  26  85 CALM      30.38S
APPLETON       FAIR      36  28  75 CALM      30.35S
CLINTONVILLE   FAIR      29  24  81 CALM      30.36S
OSHKOSH        FAIR      34  29  82 CALM      30.35S
$$

WIZ032>034-041-042-053>061-221000-
SOUTHWEST WISCONSIN

CITY           SKY/WX    TMP DP  RH WIND       PRES   REMARKS
LA CROSSE      MOCLDY    37  32  82 CALM      30.34S
SPARTA         FAIR      27  26  93 CALM      30.35S
VIROQUA        FAIR      42  32  67 E3        30.32S
BOSCOBEL       CLOUDY    39  34  82 CALM      30.35R
PRAIRIE DU CHI CLOUDY    41  33  73 CALM      30.34S
PLATTEVILLE    CLOUDY    43  34  71 E3        30.34R
$$

WIZ056-057-062-063-064-067-068-221000-
SOUTH CENTRAL WISCONSIN

CITY           SKY/WX    TMP DP  RH WIND       PRES   REMARKS
REEDSBURG      FAIR      33  32  99 CALM      30.33R
BARABOO/DELLS  FAIR      32  29  88 CALM      30.33S
LONE ROCK      NOT AVBL
MINERAL POINT  MOCLDY    45  32  61 CALM      30.33R
MADISON        FAIR      33  31  92 CALM      30.33F
MIDDLETON      FAIR      34  32  92 CALM      30.33S
WATERTOWN      FAIR      33  30  89 CALM      30.34F
MONROE         CLOUDY    43  23  45 E3        30.32R
JANESVILLE     FAIR      37  30  75 E3        30.33S
$$

WIZ051-052-058>065-066-070>072-221000-
SOUTHEAST WISCONSIN

CITY           SKY/WX    TMP DP  RH WIND       PRES   REMARKS
MILWAUKEE      MOCLDY    37  24  59 CALM      30.36S
WAUKESHA       FAIR      32  27  80 CALM      30.36S
MILWAUKEE/TIMM FAIR      34  23  64 CALM      30.37S
RACINE         FAIR      38  25  59 CALM      30.37S
BURLINGTON     FAIR      33  30  88 CALM      30.34S
KENOSHA        FAIR      38  26  62 CALM      30.35S
FOND DU LAC    FAIR      30  26  85 CALM      30.36S
SHEBOYGAN      FAIR      30  28  92 CALM      30.36S
WEST BEND      FAIR      30  28  93 CALM      30.37R
JUNEAU         FAIR      36  29  75 CALM      30.36S
$$

LSZ147-162-221000-
LAKE SUPERIOR

STATION/POSITION TIME  TEMP    WIND        PRES    WAVE
                       AIR SEA DIR/SP/G            HT/PER
                 (UTC) (F)     (DEG/KT/KT) (MB)    (FT/S)
DEVILS ISLAND    0800   37      50/  7/  8 1028.3F
SAXON HARBOR     0840   29     200/  2/  4 1026.8S
$$

LMZ867-665-643>646-221000-
LAKE MICHIGAN

STATION/POSITION TIME  TEMP    WIND        PRES    WAVE
                       AIR SEA DIR/SP/G            HT/PER
                 (UTC) (F)     (DEG/KT/KT) (MB)    (FT/S)
NORTHPORT PIER   0840   37                 1028.4S
KEWAUNEE LAKESHO 0830   30     300/  2/  3 1027.8S
SHEBOYGAN LAKESH 0800   40      CALM  /  1 1028.6F
PORT WASHINGTON  0830   33     270/  3/  3 1029.1S
MILWAUKEE LAKESH 0840   38      10/  2/  2   N/A
KENOSHA   LAKESH 0800   39                 1028.1
$$

TC  - TEMPERATURE IN CELSIUS
VSB - VISIBILITY IN STATUTE MILES
WCI - WIND CHILL INDEX
HX  - HEAT INDEX





USA.gov is the U.S. government's official web portal to all federal, state and local government web resources and services.